Starlink 11550

operational
NORAD ID: 63052 Int'l Des: 2025-035 Owner: SPXS Country: US Constellation: starlink
LEOCIRCULAR

About Starlink 11550

Description loading...

Live Position

Loading 3D Globe...

Upcoming Passes

Altitude History

Altitude vs Time

uPlot chart will show altitude changes over time

Two-Line Element Set

1 63052U 25035A 25305.63565343 .00280201 00000-0 21015-2 0 9995
2 63052 42.9989 67.0030 0000793 201.8314 158.2520 15.70984851 41087
Epoch: Nov 1, 2025 • Age: 9 hours

Current Status

Altitude 368.6 km
Velocity 7.69 km/s
Sub-Earth Point -43.16°S, 66.92°W
Launch Date Feb 21, 2025
Age 0.6 years
Type internet

Technical Details

Classification Payload
Mass 960.00 kg
Dry Mass 910.00 kg
Total Mass 960.00 kg
Length 0.30 m
Diameter 4.10 m
Span 29.00 m
Shape Box + pan
Manufacturer SPXS
Bus Type Starlink V2MD
Phase Status In Orbit
Owner/State SPXS/US

Large Constellations

Loading constellations...